This demonstration page uses our WeatherBlox Daily Observations layout. Learn more.

Left ArrowRight Arrow

39.12711, -84.51439

Hourly Observations for January 6, 2022

Temp ( °F °C ) Dew Point ( °F °C ) Humidity (%) Winds ( mph kmh ) Pressure ( in mb ) Visibility ( mi km ) Precip ( " mm )
12:53 am 00:53 Clear 24 -4.4 12 -11.1 60 60 WNW 13 20 30.07 1018 10 16 0.00 0.00
1:53 am 01:53 Clear 22 -5.6 9 -12.8 57 57 W 13 20 30.10 1019 10 16 0.00 0.00
2:53 am 02:53 Clear 21 -6.1 9 -12.8 59 59 W 12 19 30.12 1020 10 16 0.00 0.00
3:53 am 03:53 Clear 19 -7.2 7 -13.9 59 59 WNW 9 15 30.14 1021 10 16 0.00 0.00
4:53 am 04:53 Clear 18 -7.8 6 -14.4 59 59 NW 7 11 30.15 1021 10 16 0.00 0.00
5:53 am 05:53 Clear 17 -8.3 6 -14.4 62 62 W 8 13 30.14 1021 10 16 0.00 0.00
6:53 am 06:53 Partly Cloudy 18 -7.8 7 -13.9 62 62 W 6 9 30.14 1021 10 16 0.00 0.00
7:53 am 07:53 Mostly Cloudy 19 -7.2 8 -13.3 62 62 WNW 5 7 30.14 1021 10 16 0.00 0.00
8:53 am 08:53 Mostly Cloudy 20 -6.7 8 -13.3 60 60 Calm 30.14 1021 10 16 0.00 0.00
9:53 am 09:53 Partly Cloudy 20 -6.7 8 -13.3 60 60 Calm 30.14 1021 10 16 0.00 0.00
10:53 am 10:53 Cloudy 22 -5.6 9 -12.8 57 57 WNW 7 11 30.14 1021 10 16 0.00 0.00
11:53 am 11:53 Cloudy 23 -5 9 -12.8 55 55 NW 6 9 30.11 1020 10 16 0.00 0.00
12:53 pm 12:53 Cloudy with Light Snow 23 -5 11 -11.7 60 60 WNW 6 9 30.08 1019 7 11 0.00 0.00
1:53 pm 13:53 Cloudy with Light Snow 22 -5.6 13 -10.6 68 68 W 6 9 30.06 1018 3 5 0.00 0.00
2:53 pm 14:53 Cloudy with Light Snow 21 -6.1 14 -10 74 74 WNW 8 13 30.05 1018 3 4 0.00 0.00
3:53 pm 15:53 Cloudy with Light Snow 20 -6.7 17 -8.3 89 89 NW 5 7 30.05 1018 1 2 0.00 0.00
4:53 pm 16:53 Cloudy with Light Snow 20 -6.7 17 -8.3 89 89 NW 7 11 30.06 1018 1 2 0.00 0.00
5:12 pm 17:12 Cloudy with Light Snow 20 -6.7 17 -8.3 89 89 WNW 8 13 30.08 1019 1 1 0.00 0.00
5:51 pm 17:51 Cloudy with Light Snow 19 -7 16 -9 86 86 NW 6 9 30.09 1019 3 4 0.00 0.00
5:53 pm 17:53 Cloudy with Light Snow 20 -6.7 15 -9.4 81 81 WNW 6 9 30.07 1018 3 4 0.00 0.00
6:53 pm 18:53 Cloudy 20 -6.7 12 -11.1 71 71 NW 9 15 30.09 1019 8 13 0.00 0.00
7:53 pm 19:53 Cloudy 20 -6.7 12 -11.1 71 71 WNW 9 15 30.10 1019 8 13 0.00 0.00
8:53 pm 20:53 Cloudy 20 -6.7 11 -11.7 68 68 NNW 8 13 30.11 1020 8 13 0.00 0.00
9:53 pm 21:53 Cloudy 20 -6.7 11 -11.7 68 68 W 13 20 30.12 1020 10 16 0.00 0.00
10:53 pm 22:53 Cloudy 19 -7.2 9 -12.8 65 65 W 14 22 30.14 1021 10 16 0.00 0.00
11:53 pm 23:53 Cloudy 18 -7.8 9 -12.8 68 68 W 12 19 30.17 1022 10 16 0.00 0.00

Powered by AerisWeather